Location: Innsbruck
(47.2657°N, 11.3914°E)
Time: 01:38:42
(UTC+01:00)

XW-2F - Pass Details

Date: 09 December 2021
Orbit: 495 x 515 km, 97.5° (Epoch: 16 January)

Event Time Altitude Azimuth Distance (km) Brightness Sun altitude
Rises 06:35:15 0° 12° (NNE) 2,650 ? -12.0°
Reaches altitude 10° 06:37:21 10° 13° (NNE) 1,756 ? -11.6°
Maximum altitude 06:41:09 89° 284° (WNW) 522 ? -11.0°
Drops below altitude 10° 06:44:54 10° 194° (SSW) 1,733 ? -10.5°
Sets 06:46:58 0° 195° (SSW) 2,611 ? -10.1°
